2017-11-16T07:45:00-00:00,584.41
2017-11-16T08:00:00-00:00,581.26
2017-11-16T08:15:00-00:00,575.91
2017-11-16T08:30:00-00:00,570.39
2017-11-16T08:45:00-00:00,567.21
2017-11-16T09:00:00-00:00,565.73
2017-11-16T09:15:00-00:00,560.93
2017-11-16T09:30:00-00:00,554.33
2017-11-16T09:45:00-00:00,548.93
2017-11-16T10:00:00-00:00,543.16
2017-11-16T10:15:00-00:00,538.65
2017-11-16T10:30:00-00:00,535.87
2017-11-16T10:45:00-00:00,533.12
2017-11-16T11:00:00-00:00,531.25
2017-11-16T11:15:00-00:00,527.63
2017-11-16T11:30:00-00:00,525.32
2017-11-16T11:45:00-00:00,523.15
2017-11-16T12:00:00-00:00,521.04
2017-11-16T12:15:00-00:00,519.81
2017-11-16T12:45:00-00:00,517.45
2017-11-16T13:00:00-00:00,513.02
2017-11-16T13:15:00-00:00,512.67
2017-11-16T13:30:00-00:00,513.88
2017-11-16T13:45:00-00:00,514.72
2017-11-16T14:00:00-00:00,516.68
2017-11-16T14:15:00-00:00,517.02
2017-11-16T14:30:00-00:00,517.93
2017-11-16T14:45:00-00:00,514.17
2017-11-16T15:00:00-00:00,511.14
2017-11-16T15:15:00-00:00,510.08
2017-11-16T15:30:00-00:00,508.53
2017-11-16T15:45:00-00:00,508.72
2017-11-16T16:00:00-00:00,508.05
2017-11-16T16:15:00-00:00,508.05
2017-11-16T16:30:00-00:00,508.81
2017-11-16T16:45:00-00:00,513.15
2017-11-16T17:00:00-00:00,517.69
2017-11-16T17:15:00-00:00,545.27
2017-11-16T17:30:00-00:00,607.62
2017-11-16T17:45:00-00:00,655.48
2017-11-16T18:00:00-00:00,711.75
2017-11-16T18:15:00-00:00,763.44
2017-11-16T18:30:00-00:00,817.5
2017-11-16T18:45:00-00:00,859.07
2017-11-16T19:00:00-00:00,904.67
2017-11-16T19:15:00-00:00,950.32
2017-11-16T19:30:00-00:00,988.9
2017-11-16T19:45:00-00:00,1022.41
2017-11-16T20:00:00-00:00,1045.65
2017-11-16T20:15:00-00:00,1070.84
2017-11-16T20:30:00-00:00,1130.29
2017-11-16T20:45:00-00:00,1200.56
2017-11-16T21:00:00-00:00,1263.7
2017-11-16T21:15:00-00:00,1282.51
2017-11-16T21:30:00-00:00,1331.56
2017-11-16T21:45:00-00:00,1371.35
2017-11-16T22:00:00-00:00,1376.86
2017-11-16T22:15:00-00:00,1360.57
2017-11-16T22:30:00-00:00,1339.05
2017-11-16T22:45:00-00:00,1310.65
2017-11-16T23:00:00-00:00,1275.93
2017-11-16T23:15:00-00:00,1251.24
2017-11-16T23:30:00-00:00,1234.67
2017-11-16T23:45:00-00:00,1215.53
2017-11-17T00:00:00-00:00,1195.56
2017-11-17T00:15:00-00:00,1180.45
2017-11-17T00:30:00-00:00,1165.27
2017-11-17T00:45:00-00:00,1134.1
2017-11-17T01:00:00-00:00,995.4
2017-11-17T01:15:00-00:00,980.14
2017-11-17T01:30:00-00:00,965.19
2017-11-17T01:45:00-00:00,951.66
2017-11-17T02:00:00-00:00,935.31
2017-11-17T02:15:00-00:00,922.33
2017-11-17T02:30:00-00:00,907.3
2017-11-17T02:45:00-00:00,898.35
2017-11-17T03:00:00-00:00,882.99
2017-11-17T03:15:00-00:00,870.45
2017-11-17T03:30:00-00:00,859.44
2017-11-17T03:45:00-00:00,848.17
2017-11-17T04:00:00-00:00,838.3
2017-11-17T04:15:00-00:00,826.02
2017-11-17T04:30:00-00:00,815.36
2017-11-17T04:45:00-00:00,798.45
2017-11-17T05:00:00-00:00,783.17
2017-11-17T05:15:00-00:00,772.42
2017-11-17T05:30:00-00:00,762.69
2017-11-17T05:45:00-00:00,753.31
2017-11-17T06:00:00-00:00,739.56
2017-11-17T06:15:00-00:00,729.91
2017-11-17T06:30:00-00:00,718.88
2017-11-17T06:45:00-00:00,707.96
2017-11-17T07:00:00-00:00,696.71
2017-11-17T07:15:00-00:00,689.24
2017-11-17T07:30:00-00:00,681.06
2017-11-17T07:45:00-00:00,672.59
2017-11-17T08:00:00-00:00,663.72
2017-11-17T08:15:00-00:00,660.04
2017-11-17T09:30:00-00:00,633.56
2017-11-17T09:45:00-00:00,614.37
2017-11-17T10:15:00-00:00,605.5
2017-11-17T10:30:00-00:00,594.64
2017-11-17T10:45:00-00:00,589.18
2017-11-17T11:00:00-00:00,579.8
2017-11-17T11:15:00-00:00,575.68
2017-11-17T11:30:00-00:00,578.73
2017-11-17T11:45:00-00:00,594.99
2017-11-17T12:00:00-00:00,612.04
2017-11-17T12:15:00-00:00,629.38
2017-11-17T12:30:00-00:00,647.11
2017-11-17T12:45:00-00:00,658.71
2017-11-17T13:00:00-00:00,665.92
2017-11-17T13:15:00-00:00,672.24
2017-11-17T13:30:00-00:00,675.54
2017-11-17T13:45:00-00:00,671.56
2017-11-17T14:00:00-00:00,664.75
2017-11-17T14:15:00-00:00,658.48
2017-11-17T14:30:00-00:00,666.36
2017-11-17T14:45:00-00:00,693.41
2017-11-17T15:00:00-00:00,722.44
2017-11-17T15:15:00-00:00,743.16
2017-11-17T15:30:00-00:00,764.35
2017-11-17T15:45:00-00:00,780.39
2017-11-17T16:00:00-00:00,786.62
2017-11-17T16:15:00-00:00,790.01
2017-11-17T16:30:00-00:00,794.53
2017-11-17T16:45:00-00:00,798.96
2017-11-17T17:00:00-00:00,820.32
2017-11-17T17:15:00-00:00,857.
2017-11-17T17:30:00-00:00,878.17
2017-11-17T17:45:00-00:00,890.97
2017-11-17T18:00:00-00:00,891.31
2017-11-17T18:15:00-00:00,887.16
2017-11-17T18:30:00-00:00,879.61
2017-11-17T18:45:00-00:00,868.16
2017-11-17T19:00:00-00:00,853.12
2017-11-17T19:15:00-00:00,839.73
2017-11-17T19:30:00-00:00,825.63
2017-11-17T19:45:00-00:00,815.74
2017-11-17T20:00:00-00:00,814.38
2017-11-17T20:15:00-00:00,830.22
2017-11-17T20:30:00-00:00,855.39
2017-11-17T20:45:00-00:00,873.54
2017-11-17T21:00:00-00:00,886.82
2017-11-17T21:15:00-00:00,894.54
2017-11-17T21:30:00-00:00,905.6
2017-11-17T21:45:00-00:00,921.9
2017-11-17T22:00:00-00:00,932.66
2017-11-17T22:15:00-00:00,932.99
2017-11-17T22:30:00-00:00,928.43
2017-11-17T22:45:00-00:00,902.03
2017-11-17T23:00:00-00:00,882.34
2017-11-17T23:15:00-00:00,874.55
2017-11-17T23:30:00-00:00,857.31
2017-11-17T23:45:00-00:00,842.46
2017-11-18T00:00:00-00:00,831.3
2017-11-18T00:15:00-00:00,815.54
2017-11-18T00:30:00-00:00,802.12
2017-11-18T00:45:00-00:00,786.14
2017-11-18T01:00:00-00:00,770.83
2017-11-18T01:15:00-00:00,757.95
2017-11-18T01:30:00-00:00,745.32
2017-11-18T01:45:00-00:00,733.87
2017-11-18T02:00:00-00:00,720.15
2017-11-18T02:15:00-00:00,708.41
2017-11-18T02:30:00-00:00,696.66
2017-11-18T02:45:00-00:00,687.54
2017-11-18T03:00:00-00:00,678.51
2017-11-18T03:15:00-00:00,667.98
2017-11-18T03:30:00-00:00,657.99
2017-11-18T03:45:00-00:00,649.91
2017-11-18T04:00:00-00:00,640.85
2017-11-18T04:15:00-00:00,632.34
2017-11-18T04:30:00-00:00,623.47
2017-11-18T04:45:00-00:00,616.13
2017-11-18T05:00:00-00:00,607.41
2017-11-18T05:15:00-00:00,601.18
2017-11-18T05:30:00-00:00,596.32
2017-11-18T05:45:00-00:00,588.92
2017-11-18T06:00:00-00:00,581.9
2017-11-18T06:15:00-00:00,575.35
2017-11-18T06:30:00-00:00,570.57
2017-11-18T06:45:00-00:00,565.38
2017-11-18T07:00:00-00:00,560.34
2017-11-18T07:15:00-00:00,556.22
2017-11-18T07:30:00-00:00,551.24
2017-11-18T07:45:00-00:00,547.43
2017-11-18T08:00:00-00:00,543.89
2017-11-18T08:15:00-00:00,539.48
2017-11-18T08:30:00-00:00,535.15
2017-11-18T08:45:00-00:00,532.19
2017-11-18T09:00:00-00:00,528.81
2017-11-18T09:15:00-00:00,524.74
2017-11-18T09:30:00-00:00,520.63
2017-11-18T09:45:00-00:00,520.31
2017-11-18T10:00:00-00:00,519.46
2017-11-18T10:15:00-00:00,517.11
2017-11-18T10:30:00-00:00,514.2
2017-11-18T10:45:00-00:00,512.25
2017-11-18T11:00:00-00:00,508.11
2017-11-18T11:15:00-00:00,502.25
2017-11-18T11:30:00-00:00,494.99
2017-11-18T11:45:00-00:00,489.26
2017-11-18T12:00:00-00:00,484.44
2017-11-18T12:15:00-00:00,479.12
2017-11-18T12:30:00-00:00,473.29
2017-11-18T12:45:00-00:00,468.09
2017-11-18T13:00:00-00:00,462.25
2017-11-18T13:15:00-00:00,457.03
2017-11-18T13:30:00-00:00,452.6
2017-11-18T13:45:00-00:00,448.61
2017-11-18T14:00:00-00:00,443.76
2017-11-18T14:15:00-00:00,439.61
2017-11-18T14:30:00-00:00,435.89
2017-11-18T14:45:00-00:00,432.31
2017-11-18T15:00:00-00:00,428.4
2017-11-18T15:15:00-00:00,424.7
2017-11-18T15:30:00-00:00,420.67
2017-11-18T15:45:00-00:00,418.07
2017-11-18T16:00:00-00:00,415.69
2017-11-18T16:15:00-00:00,412.14
2017-11-18T16:30:00-00:00,409.52
2017-11-18T16:45:00-00:00,407.09
2017-11-18T17:00:00-00:00,409.35
2017-11-18T17:15:00-00:00,409.08
2017-11-18T17:30:00-00:00,411.83
2017-11-18T17:45:00-00:00,412.92
2017-11-18T18:00:00-00:00,414.23
2017-11-18T18:15:00-00:00,414.52
2017-11-18T18:30:00-00:00,412.73
2017-11-18T18:45:00-00:00,411.81
2017-11-18T19:00:00-00:00,408.35
2017-11-18T19:15:00-00:00,405.94
2017-11-18T19:30:00-00:00,403.03
2017-11-18T19:45:00-00:00,400.95
2017-11-18T20:00:00-00:00,400.02
2017-11-18T20:15:00-00:00,400.
2017-11-18T20:30:00-00:00,400.
2017-11-18T20:45:00-00:00,400.
2017-11-18T21:00:00-00:00,400.
2017-11-18T21:15:05-00:00,400.
2017-11-18T21:30:00-00:00,400.
2017-11-18T21:45:00-00:00,400.
2017-11-18T22:00:00-00:00,400.
2017-11-18T22:15:00-00:00,400.
2017-11-18T22:30:00-00:00,400.
2017-11-18T22:45:00-00:00,400.
2017-11-18T23:00:00-00:00,400.
2017-11-18T23:15:00-00:00,400.
2017-11-18T23:30:00-00:00,400.
2017-11-18T23:45:00-00:00,400.
2017-11-19T00:00:00-00:00,400.
2017-11-19T00:15:00-00:00,400.
2017-11-19T00:30:00-00:00,400.
2017-11-19T00:45:00-00:00,400.
2017-11-19T01:00:00-00:00,400.
2017-11-19T01:15:00-00:00,400.
2017-11-19T01:30:00-00:00,400.
2017-11-19T01:45:00-00:00,400.
2017-11-19T02:00:00-00:00,400.
2017-11-19T02:15:00-00:00,400.
2017-11-19T02:30:00-00:00,400.
2017-11-19T02:45:00-00:00,400.
2017-11-19T03:00:00-00:00,400.
2017-11-19T03:15:00-00:00,400.
2017-11-19T03:30:00-00:00,400.
2017-11-19T03:45:00-00:00,400.
2017-11-19T04:00:00-00:00,400.
2017-11-19T04:15:00-00:00,400.
2017-11-19T04:30:00-00:00,400.
2017-11-19T04:45:00-00:00,400.
2017-11-19T05:00:00-00:00,400.
2017-11-19T05:15:00-00:00,400.
2017-11-19T05:30:00-00:00,400.
2017-11-19T05:45:00-00:00,400.
2017-11-19T06:00:00-00:00,400.
2017-11-19T06:15:00-00:00,400.
2017-11-19T06:30:00-00:00,400.
2017-11-19T06:45:00-00:00,400.
2017-11-19T07:00:00-00:00,400.
2017-11-19T07:15:00-00:00,400.
2017-11-19T07:30:00-00:00,400.
2017-11-19T07:45:00-00:00,400.
2017-11-19T08:00:00-00:00,400.
2017-11-19T08:15:00-00:00,400.
2017-11-19T08:30:00-00:00,400.
2017-11-19T08:45:00-00:00,400.
2017-11-19T09:00:00-00:00,400.
2017-11-19T09:15:00-00:00,400.
2017-11-19T09:30:00-00:00,400.
2017-11-19T09:45:00-00:00,400.
2017-11-19T10:00:00-00:00,400.
2017-11-19T10:15:00-00:00,400.
2017-11-19T10:30:00-00:00,400.
2017-11-19T10:45:00-00:00,400.
2017-11-19T11:00:00-00:00,400.
2017-11-19T11:15:00-00:00,400.
2017-11-19T11:30:00-00:00,400.
2017-11-19T11:45:00-00:00,400.
2017-11-19T12:00:00-00:00,400.
2017-11-19T12:15:00-00:00,400.
2017-11-19T12:30:00-00:00,400.
2017-11-19T12:45:00-00:00,400.
2017-11-19T13:00:00-00:00,400.
2017-11-19T13:15:00-00:00,400.
2017-11-19T13:30:00-00:00,400.
2017-11-19T13:45:00-00:00,400.
2017-11-19T14:00:00-00:00,400.
2017-11-19T14:15:00-00:00,400.
2017-11-19T14:30:00-00:00,400.
2017-11-19T14:45:00-00:00,400.
2017-11-19T15:00:00-00:00,400.
2017-11-19T15:15:00-00:00,400.
2017-11-19T15:30:00-00:00,400.
2017-11-19T15:45:00-00:00,400.
2017-11-19T16:00:00-00:00,400.
2017-11-19T16:15:00-00:00,400.
2017-11-19T16:30:00-00:00,400.
2017-11-19T16:45:00-00:00,400.
2017-11-19T17:00:00-00:00,400.
2017-11-19T17:15:00-00:00,400.
2017-11-19T17:30:00-00:00,400.
2017-11-19T17:45:00-00:00,400.
2017-11-19T18:00:00-00:00,400.
2017-11-19T18:15:00-00:00,400.
2017-11-19T18:30:00-00:00,400.
2017-11-19T18:45:00-00:00,400.
2017-11-19T19:00:00-00:00,400.
2017-11-19T19:15:00-00:00,400.
2017-11-19T19:30:00-00:00,400.
2017-11-19T19:45:00-00:00,400.
2017-11-19T20:00:00-00:00,400.
2017-11-19T20:15:00-00:00,400.
2017-11-19T20:30:00-00:00,400.
2017-11-19T20:45:00-00:00,400.
2017-11-19T21:00:00-00:00,400.
2017-11-19T21:15:00-00:00,400.
2017-11-19T21:30:00-00:00,400.
2017-11-19T21:45:00-00:00,400.
2017-11-19T22:00:00-00:00,400.
2017-11-19T22:15:00-00:00,400.
2017-11-19T22:30:00-00:00,400.
2017-11-19T22:45:00-00:00,400.
2017-11-19T23:00:00-00:00,400.
2017-11-19T23:15:00-00:00,400.
2017-11-19T23:30:00-00:00,400.
2017-11-19T23:45:00-00:00,400.
2017-11-20T00:00:00-00:00,400.
2017-11-20T00:15:00-00:00,400.
2017-11-20T00:30:00-00:00,400.
2017-11-20T00:45:00-00:00,400.
2017-11-20T01:00:00-00:00,400.
2017-11-20T01:15:00-00:00,400.
2017-11-20T01:30:00-00:00,400.
2017-11-20T01:45:00-00:00,400.
2017-11-20T02:00:00-00:00,400.
2017-11-20T02:15:00-00:00,403.2
2017-11-20T02:30:00-00:00,446.37
2017-11-20T02:45:00-00:00,447.36
2017-11-20T03:00:00-00:00,446.44
2017-11-20T03:15:00-00:00,446.13
2017-11-20T03:30:00-00:00,445.95
2017-11-20T03:45:00-00:00,445.2
2017-11-20T04:00:00-00:00,443.72
2017-11-20T04:15:00-00:00,442.49
2017-11-20T04:30:00-00:00,442.77
2017-11-20T04:45:00-00:00,444.74
2017-11-20T05:00:00-00:00,444.16
2017-11-20T05:15:00-00:00,444.21
2017-11-20T05:30:00-00:00,443.81
2017-11-20T05:45:00-00:00,443.41
2017-11-20T06:00:00-00:00,441.5
2017-11-20T06:15:00-00:00,442.04
2017-11-20T06:30:00-00:00,441.38
2017-11-20T06:45:00-00:00,440.01
2017-11-20T07:00:00-00:00,441.78
2017-11-20T07:15:00-00:00,446.01
2017-11-20T07:30:00-00:00,448.06
2017-11-20T07:45:00-00:00,445.97
2017-11-20T08:00:00-00:00,449.47
2017-11-20T08:15:00-00:00,473.65
2017-11-20T08:30:00-00:00,518.56
2017-11-20T08:45:00-00:00,581.39
2017-11-20T09:00:00-00:00,637.59
2017-11-20T09:15:00-00:00,706.28
2017-11-20T09:30:00-00:00,776.25
2017-11-20T09:45:00-00:00,835.97
2017-11-20T10:00:00-00:00,880.72
2017-11-20T10:15:00-00:00,912.89
2017-11-20T10:30:00-00:00,950.94
2017-11-20T10:45:00-00:00,986.52
2017-11-20T11:00:00-00:00,1026.58
2017-11-20T11:15:00-00:00,1078.98
2017-11-20T11:30:00-00:00,1128.86
2017-11-20T11:45:00-00:00,1164.94
2017-11-20T12:00:00-00:00,1195.55
2017-11-20T12:15:00-00:00,1220.1
2017-11-20T12:30:00-00:00,1250.27
2017-11-20T12:45:00-00:00,1267.46
2017-11-20T13:00:00-00:00,1294.95
2017-11-20T13:15:00-00:00,1319.29
2017-11-20T13:30:00-00:00,1339.81
2017-11-20T13:45:00-00:00,1325.76
2017-11-20T14:00:00-00:00,1337.93
2017-11-20T14:15:00-00:00,1342.99
2017-11-20T14:30:00-00:00,1335.58
2017-11-20T14:45:00-00:00,1336.05
2017-11-20T15:00:00-00:00,1338.59
2017-11-20T15:15:00-00:00,1333.82
2017-11-20T15:30:00-00:00,1328.33
2017-11-20T15:45:00-00:00,1325.14
2017-11-20T16:00:00-00:00,1311.07
2017-11-20T16:15:00-00:00,1303.09
2017-11-20T16:30:00-00:00,1297.92
2017-11-20T16:45:00-00:00,1290.74
2017-11-20T17:00:00-00:00,1284.92
2017-11-20T17:15:00-00:00,1267.96
2017-11-20T17:30:00-00:00,1266.6
2017-11-20T17:45:00-00:00,1282.86
2017-11-20T18:00:00-00:00,1300.02
2017-11-20T18:15:00-00:00,1307.66
2017-11-20T18:30:00-00:00,1320.47
2017-11-20T18:45:00-00:00,1327.1
2017-11-20T19:00:00-00:00,1313.01
2017-11-20T19:15:00-00:00,1304.84
2017-11-20T19:30:00-00:00,1301.46
2017-11-20T19:45:00-00:00,1300.77
2017-11-20T20:00:00-00:00,1298.96
2017-11-20T20:15:00-00:00,1289.67
2017-11-20T20:30:00-00:00,1314.7
2017-11-20T20:45:00-00:00,1338.04
2017-11-20T21:00:00-00:00,1349.99
2017-11-20T21:15:02-00:00,1367.24
2017-11-20T21:30:00-00:00,1396.28
2017-11-20T21:45:00-00:00,1406.68
2017-11-20T22:00:00-00:00,1390.22
2017-11-20T22:15:00-00:00,1361.09
2017-11-20T22:30:00-00:00,1333.18
2017-11-20T22:45:00-00:00,1296.71
2017-11-20T23:00:00-00:00,1263.95
2017-11-20T23:15:00-00:00,1246.61
2017-11-20T23:30:00-00:00,1215.91
2017-11-20T23:45:00-00:00,1182.66
2017-11-21T00:00:00-00:00,1153.78
2017-11-21T00:15:00-00:00,1127.67
2017-11-21T00:30:00-00:00,1102.91
2017-11-21T00:45:00-00:00,1080.64
2017-11-21T01:00:00-00:00,1055.91
2017-11-21T01:15:00-00:00,1043.05
2017-11-21T01:30:00-00:00,1028.56
2017-11-21T01:45:00-00:00,1005.77
2017-11-21T02:00:00-00:00,984.78
2017-11-21T02:15:00-00:00,961.81
2017-11-21T02:30:00-00:00,940.39
2017-11-21T02:45:00-00:00,923.27
2017-11-21T03:00:00-00:00,907.41
2017-11-21T03:15:00-00:00,895.77
2017-11-21T03:30:00-00:00,882.72
2017-11-21T03:45:00-00:00,865.55
2017-11-21T04:00:00-00:00,850.72
2017-11-21T04:15:00-00:00,836.58
2017-11-21T04:30:00-00:00,821.86
2017-11-21T04:45:00-00:00,808.64
2017-11-21T05:00:00-00:00,791.65
2017-11-21T05:15:00-00:00,777.15
2017-11-21T05:30:00-00:00,765.66
2017-11-21T05:45:00-00:00,757.12
2017-11-21T06:00:00-00:00,746.94
2017-11-21T06:15:00-00:00,737.3
2017-11-21T06:30:00-00:00,725.33
2017-11-21T06:45:00-00:00,713.01
2017-11-21T07:00:00-00:00,705.14
2017-11-21T07:15:00-00:00,693.84
2017-11-21T07:30:00-00:00,683.57
2017-11-21T07:45:00-00:00,676.48
2017-11-21T08:00:00-00:00,668.23
2017-11-21T08:15:00-00:00,658.66
2017-11-21T08:30:00-00:00,648.21
2017-11-21T08:45:00-00:00,641.06
2017-11-21T09:00:00-00:00,631.72
2017-11-21T09:15:00-00:00,622.25
2017-11-21T09:30:00-00:00,612.3
2017-11-21T09:45:00-00:00,601.51
2017-11-21T10:00:00-00:00,596.02
2017-11-21T10:15:00-00:00,590.32
2017-11-21T10:30:00-00:00,581.18
2017-11-21T10:45:00-00:00,593.36
2017-11-21T11:00:00-00:00,645.04
2017-11-21T11:15:00-00:00,712.51
2017-11-21T11:30:00-00:00,766.23
2017-11-21T11:45:00-00:00,824.06
2017-11-21T12:00:00-00:00,889.2
2017-11-21T12:15:00-00:00,955.98
2017-11-21T12:30:00-00:00,994.47
2017-11-21T12:45:00-00:00,1070.58
2017-11-21T13:00:00-00:00,1120.52
2017-11-21T13:15:00-00:00,1175.38
2017-11-21T13:30:00-00:00,1229.62
2017-11-21T13:45:00-00:00,1274.65
2017-11-21T14:00:00-00:00,1310.
2017-11-21T14:15:00-00:00,1352.06
2017-11-21T14:45:00-00:00,1443.09
2017-11-21T15:00:00-00:00,1471.77
2017-11-21T15:15:00-00:00,1498.05
2017-11-21T15:30:00-00:00,1510.73
2017-11-21T15:45:00-00:00,1511.82
2017-11-21T16:00:00-00:00,1490.7
2017-11-21T16:15:00-00:00,1454.09
2017-11-21T16:30:00-00:00,1406.87
2017-11-21T16:45:00-00:00,1368.01
2017-11-21T17:00:00-00:00,1327.25
2017-11-21T17:15:00-00:00,1293.71
2017-11-21T17:30:00-00:00,1291.71
2017-11-21T17:45:00-00:00,1339.9
2017-11-21T18:00:00-00:00,1392.34
2017-11-21T18:15:00-00:00,1445.75
2017-11-21T18:30:00-00:00,1509.93
2017-11-21T18:45:00-00:00,1555.48
2017-11-21T19:00:00-00:00,1596.13
2017-11-21T19:15:00-00:00,1611.21
2017-11-21T19:30:00-00:00,1610.79
2017-11-21T19:45:00-00:00,1599.64
2017-11-21T20:00:00-00:00,1589.56
2017-11-21T20:15:00-00:00,1574.76
2017-11-21T20:30:00-00:00,1574.14
2017-11-21T20:45:00-00:00,1570.
2017-11-21T21:00:00-00:00,1566.82
2017-11-21T21:15:00-00:00,1564.57
2017-11-21T21:30:00-00:00,1540.76
2017-11-21T21:45:00-00:00,1504.28
2017-11-21T22:00:00-00:00,1477.61
2017-11-21T22:15:00-00:00,1444.22
2017-11-21T22:30:00-00:00,1420.6
2017-11-21T22:45:00-00:00,1382.13
2017-11-21T23:00:00-00:00,1336.56
2017-11-21T23:15:00-00:00,1298.83
2017-11-21T23:30:00-00:00,1238.31
2017-11-21T23:45:00-00:00,1182.88
2017-11-22T00:00:00-00:00,1152.01
2017-11-22T00:15:00-00:00,1115.36
2017-11-22T00:30:00-00:00,1088.95
2017-11-22T00:45:00-00:00,1069.94
2017-11-22T01:00:00-00:00,1036.05
2017-11-22T01:15:00-00:00,1015.97
2017-11-22T01:30:00-00:00,990.3
2017-11-22T01:45:00-00:00,969.03
2017-11-22T02:00:00-00:00,940.26
2017-11-22T02:15:00-00:00,919.07
2017-11-22T02:30:00-00:00,910.17
2017-11-22T02:45:00-00:00,886.6
2017-11-22T03:00:00-00:00,870.34
2017-11-22T03:15:00-00:00,848.06
2017-11-22T03:30:00-00:00,824.68
2017-11-22T03:45:00-00:00,805.81
2017-11-22T04:00:00-00:00,788.24
2017-11-22T04:15:00-00:00,777.78
2017-11-22T04:30:00-00:00,761.93
2017-11-22T04:45:00-00:00,748.31
2017-11-22T05:00:00-00:00,736.74
2017-11-22T05:15:00-00:00,723.98
2017-11-22T05:30:00-00:00,710.54
2017-11-22T05:45:00-00:00,701.15
2017-11-22T06:00:00-00:00,689.39
2017-11-22T06:15:00-00:00,677.34
2017-11-22T06:30:00-00:00,665.98
2017-11-22T06:45:00-00:00,651.32
2017-11-22T07:00:00-00:00,639.73
2017-11-22T07:15:00-00:00,633.31
2017-11-22T07:30:00-00:00,623.73
2017-11-22T07:45:00-00:00,619.29
2017-11-22T08:00:00-00:00,611.69
2017-11-22T08:15:00-00:00,604.97
2017-11-22T08:30:00-00:00,598.99
2017-11-22T08:45:00-00:00,589.31
2017-11-22T09:00:00-00:00,582.56
2017-11-22T09:15:00-00:00,575.46
2017-11-22T09:30:00-00:00,570.39
2017-11-22T09:45:00-00:00,566.87
2017-11-22T10:00:00-00:00,566.79
2017-11-22T10:15:00-00:00,565.48
2017-11-22T10:30:00-00:00,564.46
2017-11-22T10:45:00-00:00,575.52
2017-11-22T11:00:00-00:00,596.87
2017-11-22T11:15:00-00:00,637.34
2017-11-22T11:30:00-00:00,687.01
2017-11-22T11:45:00-00:00,748.02
2017-11-22T12:00:00-00:00,823.42
2017-11-22T12:15:00-00:00,904.69
2017-11-22T12:30:00-00:00,991.22
2017-11-22T12:45:00-00:00,1067.76
2017-11-22T13:00:00-00:00,1125.64
2017-11-22T13:15:00-00:00,1174.17
2017-11-22T13:30:00-00:00,1227.4
2017-11-22T13:45:00-00:00,1312.97
2017-11-22T14:00:00-00:00,1357.68
2017-11-22T14:15:00-00:00,1411.19
2017-11-22T14:30:00-00:00,1430.32
2017-11-22T14:45:00-00:00,1438.13
2017-11-22T15:00:00-00:00,1477.16
2017-11-22T15:15:00-00:00,1508.84
2017-11-22T15:30:00-00:00,1580.32
2017-11-22T15:45:00-00:00,1639.51
2017-11-22T16:00:00-00:00,1639.01
2017-11-22T16:15:00-00:00,1659.29
2017-11-22T16:30:00-00:00,1694.53
2017-11-22T16:45:00-00:00,1736.98
2017-11-22T17:00:00-00:00,1815.99
2017-11-22T17:15:00-00:00,1848.73
2017-11-22T17:30:00-00:00,1843.58
2017-11-22T17:45:00-00:00,1829.01
2017-11-22T18:00:00-00:00,1812.74
2017-11-22T18:15:00-00:00,1779.18
2017-11-22T18:30:00-00:00,1709.64
2017-11-22T18:45:00-00:00,1663.86
2017-11-22T19:00:00-00:00,1626.34
2017-11-22T19:15:00-00:00,1584.99
2017-11-22T19:30:00-00:00,1554.09
2017-11-22T19:45:00-00:00,1527.84
2017-11-22T20:00:00-00:00,1491.48
2017-11-22T20:15:00-00:00,1448.12
2017-11-22T20:30:00-00:00,1407.82
2017-11-22T20:45:00-00:00,1389.93
2017-11-22T21:00:00-00:00,1362.06
2017-11-22T21:15:00-00:00,1326.77
2017-11-22T21:30:00-00:00,1288.93
2017-11-22T21:45:00-00:00,1252.96
2017-11-22T22:00:00-00:00,1211.06
2017-11-22T22:15:00-00:00,1167.09
2017-11-22T22:30:00-00:00,1142.75
2017-11-22T22:45:00-00:00,1117.02
2017-11-22T23:00:00-00:00,1082.71
2017-11-22T23:15:00-00:00,1059.7
2017-11-22T23:30:00-00:00,1032.02
2017-11-22T23:45:00-00:00,1012.35
2017-11-23T00:00:00-00:00,977.29
2017-11-23T00:15:00-00:00,948.03
2017-11-23T00:30:00-00:00,917.86
2017-11-23T00:45:00-00:00,884.84
2017-11-23T01:00:00-00:00,866.57
2017-11-23T01:15:00-00:00,841.12
2017-11-23T01:30:00-00:00,821.12
2017-11-23T01:45:00-00:00,809.74
2017-11-23T02:00:00-00:00,779.31
2017-11-23T02:15:00-00:00,760.01
2017-11-23T02:30:00-00:00,740.29
2017-11-23T02:45:00-00:00,720.15
2017-11-23T03:00:00-00:00,702.11
2017-11-23T03:15:00-00:00,683.33
2017-11-23T03:30:00-00:00,670.45
2017-11-23T03:45:00-00:00,656.07
2017-11-23T04:00:00-00:00,602.24
2017-11-23T04:15:00-00:00,585.01
2017-11-23T04:30:00-00:00,572.3
2017-11-23T04:45:00-00:00,560.13
2017-11-23T05:00:00-00:00,547.35
2017-11-23T05:15:00-00:00,536.75
2017-11-23T05:30:00-00:00,524.69
2017-11-23T05:45:00-00:00,514.93
2017-11-23T06:00:00-00:00,505.34
2017-11-23T06:15:00-00:00,496.17
2017-11-23T06:30:00-00:00,487.99
2017-11-23T06:45:00-00:00,479.02
2017-11-23T07:00:00-00:00,472.46
2017-11-23T07:15:00-00:00,464.51
2017-11-23T07:30:00-00:00,457.32
2017-11-23T07:45:00-00:00,448.23
2017-11-23T08:00:00-00:00,440.92
2017-11-23T08:15:00-00:00,433.4
2017-11-23T08:30:00-00:00,425.64
2017-11-23T08:45:00-00:00,421.2
2017-11-23T09:00:00-00:00,419.02
2017-11-23T09:15:00-00:00,431.7
2017-11-23T09:30:00-00:00,435.61
2017-11-23T09:45:00-00:00,442.52
2017-11-23T10:00:00-00:00,445.05
2017-11-23T10:15:00-00:00,450.96
2017-11-23T10:30:00-00:00,466.79
2017-11-23T10:45:00-00:00,462.29
2017-11-23T11:00:00-00:00,457.02
2017-11-23T11:15:00-00:00,449.76
2017-11-23T11:30:00-00:00,441.58
2017-11-23T11:45:00-00:00,437.04
2017-11-23T12:00:00-00:00,435.97
2017-11-23T12:15:00-00:00,440.
2017-11-23T12:30:00-00:00,443.75
2017-11-23T12:45:00-00:00,453.87
2017-11-23T13:00:00-00:00,463.54
2017-11-23T13:15:00-00:00,469.47
2017-11-23T13:30:00-00:00,472.49
2017-11-23T13:45:00-00:00,472.53
2017-11-23T14:00:00-00:00,469.91
2017-11-23T14:15:00-00:00,464.2
2017-11-23T14:30:00-00:00,457.36
2017-11-23T14:45:00-00:00,453.92
2017-11-23T15:00:00-00:00,450.21
2017-11-23T15:15:00-00:00,446.35
2017-11-23T15:30:00-00:00,444.44
2017-11-23T15:45:00-00:00,440.13
2017-11-23T16:00:00-00:00,437.72
2017-11-23T16:15:00-00:00,438.35
2017-11-23T16:30:00-00:00,441.75
2017-11-23T16:45:00-00:00,448.16
2017-11-23T17:00:00-00:00,455.84
2017-11-23T17:15:00-00:00,465.3
2017-11-23T17:30:00-00:00,476.17
2017-11-23T17:45:00-00:00,491.42
2017-11-23T18:00:00-00:00,506.14
2017-11-23T18:15:00-00:00,525.43
2017-11-23T18:30:00-00:00,545.43
2017-11-23T18:45:00-00:00,565.55
2017-11-23T19:00:00-00:00,582.5
2017-11-23T19:15:00-00:00,593.61
2017-11-23T19:30:00-00:00,602.65
2017-11-23T19:45:00-00:00,626.02
2017-11-23T20:00:00-00:00,646.9
2017-11-23T20:15:00-00:00,692.33
2017-11-23T20:30:00-00:00,743.51
2017-11-23T20:45:00-00:00,793.95
2017-11-23T21:00:00-00:00,833.82
2017-11-23T21:15:00-00:00,869.5
2017-11-23T21:30:00-00:00,888.51
2017-11-23T21:45:00-00:00,879.55
2017-11-23T22:00:00-00:00,863.97
2017-11-23T22:15:00-00:00,850.83
2017-11-23T22:30:00-00:00,834.15
2017-11-23T22:45:00-00:00,818.67
2017-11-23T23:00:00-00:00,801.73
2017-11-23T23:15:00-00:00,791.19
2017-11-23T23:30:00-00:00,776.97
2017-11-23T23:45:00-00:00,759.36